Location: Spring Creek
(38.2870°N, 100.2160°W)
Time: 09:10:22
(UTC+00:00)

ATLAS 5 CENTAUR R/B - Pass Details

Date: 08 May 2021
Orbit: 513 x 1144 km, 63.3° (Epoch: 18 June)

Event Time Altitude Azimuth Distance (km) Brightness Sun altitude
Rises 04:43:36 0° 322° (NW) 3,361 6.6 -28.5°
Reaches altitude 10° 04:45:56 10° 319° (NW) 2,516 5.6 -28.7°
Maximum altitude 04:51:46 59° 241° (WSW) 1,112 2.7 -29.3°
Enters shadow 04:51:55 59° 235° (SW) 1,117 2.6 -29.3°
